Location: Edmonton
(53.5500°N, 113.5000°W)
Time: 04:52:19
(UTC-07:00)

N. Korean satellite - Pass Details

Date: 30 October 2019
Orbit: 456 x 506 km, 97.2° (Epoch: 21 November)

Event Time Altitude Azimuth Distance (km) Brightness Sun altitude
Rises 19:18:38 0° 196° (SSW) 2,489 10.5 -11.3°
Reaches altitude 10° 19:20:56 10° 211° (SSW) 1,627 9.8 -11.7°
Maximum altitude 19:23:49 24° 267° (W) 1,034 9.3 -12.1°
Drops below altitude 10° 19:26:45 10° 322° (NW) 1,662 9.7 -12.5°
Sets 19:29:08 0° 337° (NNW) 2,557 10.5 -12.9°
